Weather History for Baker, MT

Change the Weather History Date:

Saturday, June 22, 2013

  Actual Average Record
Temperature  
Mean Temperature 62 °F -  
Max Temperature 72 °F 70 °F 91 °F (2005)
Min Temperature 52 °F 54 °F 43 °F (2006)
Degree Days  
Heating Degree Days 3    
Growing Degree Days 12 (Base 50)    
Moisture  
Dew Point 52 °F    
Average Humidity 81    
Maximum Humidity 94    
Minimum Humidity 59    
Precipitation  
Precipitation 2.03 in - - ()
Sea Level Pressure  
Sea Level Pressure 29.93 in    
Wind  
Wind Speed 7 mph (NNW)    
Max Wind Speed 31 mph    
Max Gust Speed 40 mph    
Visibility 7 miles    
Events Fog , Rain , Thunderstorm    
Averages and records for this station are not official NWS values.
T = Trace of Precipitation, MM = Missing Value Source: NWS Daily Summary

Daily Weather History Graph

Daily Weather History Graph

Search for Another Location

Airport:

Trip Planner

Search our weather history database for the weather conditions in past years. The results will help you decide how hot, cold, wet, or windy it might be!

Date:

Astronomy

Jun. 22, 2013 Rise Set
Actual Time 5:05 AM MDT 8:53 PM MDT
Civil Twilight 4:26 AM MDT 9:32 PM MDT
Nautical Twilight 3:33 AM MDT 10:25 PM MDT
Astronomical Twilight 2:17 AM MDT 11:40 PM MDT
Moon 8:06 PM MDT (6/22) 4:24 AM MDT (6/22)
Length of Visible Light 17h 06m
Length of Day
15h 48m
Waxing Gibbous, 99% of the Moon is Illuminated
Jun 22
Waxing Gibbous
Jun 23
Full
Jun 29
Last Quarter
Jul 8
New
Jul 15
First Quarter

Hourly Weather History & Observations

Time (MDT) Temp. Dew Point Humidity Pressure Visibility Wind Dir Wind Speed Gust Speed Precip Events Conditions
12:51 AM 57.0 °F 52.0 °F 83% 29.91 in 10.0 mi Calm Calm - N/A   Clear
1:51 AM 57.0 °F 53.1 °F 87% 29.95 in 10.0 mi NW 5.8 mph - N/A   Partly Cloudy
2:51 AM 57.0 °F 53.1 °F 87% 29.91 in 10.0 mi NNW 10.4 mph - N/A   Mostly Cloudy
3:51 AM 57.0 °F 53.1 °F 87% 29.92 in 10.0 mi Variable 4.6 mph - 0.00 in   Partly Cloudy
4:51 AM 55.9 °F 52.0 °F 87% 29.93 in 10.0 mi NNE 5.8 mph - N/A   Clear
5:01 AM 55.4 °F 51.8 °F 88% 29.97 in 10.0 mi Calm Calm - N/A   Scattered Clouds
5:06 AM 55.4 °F 51.8 °F 88% 29.98 in 10.0 mi Calm Calm - N/A   Mostly Cloudy
5:22 AM 55.4 °F 51.8 °F 88% 29.97 in 9.0 mi NE 5.8 mph - N/A   Mostly Cloudy
5:34 AM 55.4 °F 51.8 °F 88% 29.97 in 10.0 mi Calm Calm - N/A   Scattered Clouds
5:51 AM 55.9 °F 52.0 °F 87% 29.94 in 8.0 mi ENE 4.6 mph - N/A   Clear
6:51 AM 57.9 °F 53.1 °F 84% 29.95 in 10.0 mi ESE 6.9 mph - N/A   Partly Cloudy
7:51 AM 62.1 °F 54.0 °F 75% 29.95 in 10.0 mi SE 4.6 mph - N/A   Clear
8:22 AM 62.6 °F 55.4 °F 77% 29.99 in 10.0 mi SE 8.1 mph - N/A   Mostly Cloudy
8:51 AM 61.0 °F 55.0 °F 81% 29.97 in 10.0 mi Calm Calm - N/A   Overcast
9:51 AM 64.0 °F 55.0 °F 73% 29.94 in 10.0 mi NNW 11.5 mph - N/A   Overcast
10:46 AM 64.4 °F 53.6 °F 68% 29.96 in 10.0 mi North 9.2 mph - N/A   Scattered Clouds
10:51 AM 64.0 °F 55.0 °F 73% 29.92 in 10.0 mi North 9.2 mph - N/A   Partly Cloudy
11:51 AM 66.9 °F 55.0 °F 66% 29.93 in 10.0 mi Variable 3.5 mph - N/A   Partly Cloudy
12:04 PM 68.0 °F 55.4 °F 64% 29.96 in 10.0 mi Calm Calm - N/A   Mostly Cloudy
12:21 PM 68.0 °F 55.4 °F 64% 29.96 in 10.0 mi Calm Calm - N/A   Mostly Cloudy
12:51 PM 71.1 °F 55.9 °F 59% 29.90 in 10.0 mi NNE 5.8 mph - N/A   Mostly Cloudy
1:12 PM 69.8 °F 55.4 °F 60% 29.94 in 10.0 mi Calm Calm - N/A   Overcast
1:19 PM 69.8 °F 55.4 °F 60% 29.94 in 10.0 mi Calm Calm - N/A   Overcast
1:51 PM 68.0 °F 55.9 °F 65% 29.88 in 10.0 mi East 10.4 mph - N/A   Mostly Cloudy
2:49 PM 69.8 °F 55.4 °F 60% 29.89 in 10.0 mi ENE 9.2 mph - N/A   Overcast
2:51 PM 69.1 °F 55.9 °F 63% 29.85 in 10.0 mi ENE 9.2 mph - N/A   Overcast
3:22 PM 66.2 °F 55.4 °F 68% 29.88 in 10.0 mi ENE 16.1 mph - N/A Thunderstorm Thunderstorm
3:51 PM 64.9 °F 55.9 °F 73% 29.83 in 10.0 mi NE 15.0 mph - 0.01 in Rain , Thunderstorm Light Thunderstorms and Rain
4:16 PM 59.0 °F 51.8 °F 77% 29.90 in 1.8 mi WNW 16.1 mph 26.5 mph 0.15 in Rain , Thunderstorm Light Thunderstorms and Rain
4:22 PM 55.4 °F 51.8 °F 88% 29.93 in 0.5 mi WNW 31.1 mph 40.3 mph 0.51 in Fog , Rain , Thunderstorm Heavy Thunderstorms and Rain
4:28 PM 55.4 °F 51.8 °F 88% 29.96 in 0.5 mi WNW 25.3 mph 40.3 mph 0.79 in Fog , Rain , Thunderstorm Heavy Thunderstorms and Rain
4:36 PM 53.6 °F 50.0 °F 88% 29.95 in 0.8 mi NNW 23.0 mph 33.4 mph 1.09 in Rain , Thunderstorm Heavy Thunderstorms and Rain
4:42 PM 53.6 °F 50.0 °F 88% 29.94 in 1.0 mi NW 20.7 mph 29.9 mph 1.27 in Rain , Thunderstorm Heavy Thunderstorms and Rain
4:51 PM 54.0 °F 50.0 °F 86% 29.93 in 1.2 mi NW 25.3 mph 34.5 mph 1.50 in Rain , Thunderstorm Heavy Rain
4:59 PM 53.6 °F 50.0 °F 88% 29.93 in 2.0 mi NW 24.2 mph 34.5 mph 0.07 in Rain , Thunderstorm Heavy Rain
5:08 PM 53.6 °F 50.0 °F 88% 29.94 in 3.0 mi NW 19.6 mph 31.1 mph 0.10 in Rain , Thunderstorm Heavy Rain
5:19 PM 55.4 °F 50.0 °F 82% 29.95 in 5.0 mi NNW 17.3 mph 26.5 mph 0.13 in Rain , Thunderstorm Rain
5:38 PM 53.6 °F 50.0 °F 88% 29.95 in 5.0 mi NW 13.8 mph - 0.18 in Rain Rain
5:51 PM 54.0 °F 50.0 °F 86% 29.96 in 2.0 mi WNW 5.8 mph - 0.24 in Rain Heavy Rain
6:15 PM 53.6 °F 51.8 °F 94% 29.97 in 3.0 mi WNW 4.6 mph - 0.10 in Rain , Thunderstorm Thunderstorms and Rain
6:34 PM 53.6 °F 51.8 °F 94% 29.97 in 4.0 mi West 8.1 mph - 0.15 in Rain Light Rain
6:51 PM 54.0 °F 51.1 °F 90% 29.96 in 5.0 mi Calm Calm - 0.18 in Rain Rain
7:27 PM 55.4 °F 51.8 °F 88% 29.90 in 9.0 mi ENE 18.4 mph - 0.09 in Rain Light Rain
7:51 PM 55.0 °F 51.1 °F 86% 29.88 in 10.0 mi ENE 10.4 mph 23.0 mph 0.09 in Rain Light Rain
8:51 PM 54.0 °F 48.9 °F 83% 29.89 in 10.0 mi NW 6.9 mph - 0.00 in   Mostly Cloudy
9:51 PM 54.0 °F 48.9 °F 83% 29.91 in 10.0 mi West 9.2 mph - 0.01 in   Overcast
10:28 PM 53.6 °F 48.2 °F 82% 29.92 in 10.0 mi West 11.5 mph - N/A   Scattered Clouds
10:36 PM 53.6 °F 50.0 °F 88% 29.91 in 3.0 mi West 9.2 mph - N/A   Mostly Cloudy
10:39 PM 53.6 °F 50.0 °F 88% 29.92 in 1.8 mi West 9.2 mph - N/A   Mostly Cloudy
10:51 PM 53.1 °F 50.0 °F 89% 29.88 in 0.8 mi West 10.4 mph - N/A   Mist
11:51 PM 52.0 °F 50.0 °F 93% 29.85 in 1.0 mi West 9.2 mph - N/A   Mist